Lapse_Rate
8.7 8.5 8.2 8.1 8.3 8.0 7.6 6.7 6.1 5.9 6.8 4.9 5.2 4.4 3.6 2.1 6.9 6.2 6.2 6.8 6.6 6.3 6.1 5.1 4.3 4.6 5.4 4.9 5.4 5.8 5.7 6.0 4.1 4.5 3.6 1.4 0.6 -0.3 -0.9 -0.5 1.3 0.9 0.4
8.8 8.8 8.5 8.2 8.3 8.1 7.5 6.8 6.3 6.2 7.5 8.5 7.0 4.5 4.4 5.3 5.6 4.9 7.1 7.8 7.0 6.5 6.7 5.9 5.4 5.7 4.8 5.2 5.1 5.5 5.6 5.8 4.8 3.6 3.1 2.1 0.6 -0.6 -0.7 -0.3 1.1 1.4 1.2
8.8 8.9 8.3 8.2 8.3 8.0 7.6 8.0 7.4 6.7 6.6 7.1 8.3 7.2 5.7 6.2 5.7 5.1 6.2 6.1 6.1 6.6 6.6 6.0 5.3 5.0 4.2 5.2 5.5 5.2 5.3 5.6 5.2 4.4 3.8 2.5 0.3 -0.8 -0.8 -0.5 0.3 1.0 1.9
8.9 8.7 8.3 8.1 8.1 8.1 8.0 8.0 8.1 8.2 7.4 7.3 7.9 7.8 7.4 7.7 6.5 5.5 5.0 3.3 5.1 6.1 6.4 6.2 5.7 5.1 4.4 1.8 1.3 0.9 0.8 2.1 5.9 4.6 4.7 3.7 1.5 -0.2 -0.3 -0.6 -0.4 0.1 1.0
8.9 8.6 8.2 8.3 8.4 8.2 7.9 8.2 8.2 8.2 8.2 8.2 8.4 8.2 7.3 7.7 7.0 4.6 4.8 5.0 6.1 4.4 4.8 5.7 3.8 3.3 2.3 2.1 1.5 1.0 1.1 1.2 1.7 4.6 5.4 4.6 3.2 0.8 0.9 0.8 0.4 0.0 0.8
8.6 8.6 8.8 8.6 8.6 8.1 7.9 7.8 7.9 8.1 8.2 8.1 8.0 8.0 8.2 8.7 2.9 2.5 3.5 4.6 5.9 4.8 3.4 4.4 4.2 2.1 0.5 0.3 0.2 0.0 1.6 1.3 2.5 2.7 5.0 5.5 4.0 2.4 2.8 0.9 1.0 0.4 1.1
8.8 9.0 9.0 8.8 8.6 8.3 8.2 8.0 7.8 7.4 7.3 7.7 8.1 7.9 7.5 8.2 4.4 1.1 0.9 5.9 6.2 5.4 5.6 5.0 5.1 3.7 2.0 2.4 1.3 2.1 0.6 0.6 1.9 2.5 3.6 5.5 5.7 4.5 4.8 3.5 1.5 1.3 3.0
8.7 9.0 9.2 9.0 8.3 7.1 7.0 7.5 7.4 7.3 7.4 7.2 7.1 7.2 7.7 8.1 4.8 0.9 0.4 5.6 6.3 6.0 5.8 5.1 4.4 3.3 2.9 2.3 2.0 2.9 3.7 3.3 2.2 2.8 3.3 5.2 7.0 6.1 5.6 5.3 3.4 1.4 1.5
9.2 9.1 9.0 8.7 8.3 8.4 7.9 8.2 6.5 5.7 7.4 7.8 8.0 7.6 7.2 7.3 5.0 0.6 1.2 6.8 7.4 7.1 6.4 6.2 5.6 5.3 2.6 0.4 3.6 3.6 4.6 5.0 4.0 3.1 3.3 2.4 3.2 5.8 6.1 3.6 2.4 3.0 4.0
9.0 8.4 7.5 7.9 8.4 8.5 8.6 8.4 8.0 7.6 7.7 8.3 8.6 8.3 8.0 7.8 6.1 1.3 0.8 6.5 7.3 7.5 7.6 7.2 3.3 4.6 0.8 0.3 4.8 4.9 4.9 5.0 4.1 0.8 0.4 -0.5 1.1 0.2 4.2 5.1 4.3 4.4 4.8
8.6 8.8 9.0 8.6 8.2 8.0 8.2 7.7 7.5 7.7 8.3 8.5 8.0 7.4 7.1 7.0 7.2 4.4 0.2 5.2 7.6 7.8 7.6 6.7 6.6 0.4 -0.1 -0.8 0.8 5.2 5.4 4.6 3.2 4.4 3.5 3.2 4.1 4.6 4.1 4.5 5.8 5.8 6.0
8.8 8.7 8.7 8.6 8.9 9.3 8.8 8.6 8.3 7.7 7.8 8.1 8.1 8.5 8.5 7.7 6.9 6.1 1.7 0.3 5.2 7.1 7.1 6.9 6.4 1.2 -0.8 -0.8 -0.2 2.5 1.3 3.2 5.9 4.7 5.0 5.7 5.5 5.7 4.9 4.5 5.2 6.4 5.3
8.5 8.2 8.4 8.6 8.7 9.0 8.6 8.4 8.6 8.3 8.3 8.2 8.9 8.8 8.6 8.8 8.7 5.7 3.3 -0.6 -0.6 2.4 5.5 5.3 1.4 0.4 -1.2 -0.6 -1.6 -0.0 0.3 4.8 6.6 6.5 6.2 7.0 6.7 6.0 5.7 4.4 5.2 4.2 3.1
8.3 8.3 8.2 8.3 8.3 8.4 8.6 8.6 8.6 8.4 8.1 8.2 7.6 8.1 8.5 8.9 8.8 5.1 4.0 3.9 1.4 2.0 2.6 3.5 3.1 2.8 2.4 2.6 1.3 -0.3 3.4 4.8 5.2 6.8 6.4 7.3 7.2 6.6 5.2 5.5 4.1 2.7 1.5
7.8 8.0 8.0 8.1 8.1 8.1 8.3 8.3 8.4 8.7 8.4 8.3 8.0 7.7 7.9 8.2 8.0 4.2 3.5 3.0 1.6 5.0 5.4 4.8 3.8 4.4 4.4 4.4 4.4 3.0 2.8 5.0 4.8 6.0 5.7 6.0 5.6 5.8 5.6 5.6 4.3 3.5 1.8
7.3 7.7 7.5 7.4 7.5 7.7 7.8 7.9 8.0 7.1 6.8 6.3 5.8 6.4 7.5 6.2 4.4 4.0 3.5 2.9 2.6 0.9 5.6 5.4 4.9 4.7 4.5 5.8 4.9 4.4 4.9 4.9 4.8 5.0 4.7 5.6 5.5 5.9 5.5 5.7 4.9 4.1 1.5
6.7 7.0 7.0 7.1 7.0 7.2 7.5 7.5 7.5 8.1 7.3 6.3 5.7 5.4 5.2 6.0 4.5 3.4 3.9 3.0 3.2 3.4 4.4 6.9 6.5 5.4 4.9 4.5 5.2 5.8 4.7 3.7 4.9 5.1 4.8 4.3 5.9 5.6 5.1 5.9 5.3 4.4 2.0
7.0 7.0 6.7 6.7 6.7 6.8 6.8 6.8 6.9 7.1 7.5 8.1 7.6 5.6 5.7 4.7 4.3 3.1 2.9 3.5 5.4 5.4 6.3 6.1 7.7 6.8 5.4 5.2 4.9 5.4 5.6 4.6 4.1 3.8 4.5 4.3 5.3 5.1 5.9 6.3 5.8 5.3 3.3
5.9 5.9 6.4 6.6 6.5 6.4 6.2 6.3 6.7 6.8 7.2 7.9 8.2 7.8 7.0 5.1 4.4 3.7 2.6 5.9 6.6 6.5 7.3 8.5 7.8 8.4 7.0 5.4 5.0 5.6 5.9 6.0 5.0 4.5 4.2 4.0 4.6 5.8 5.2 5.4 5.8 3.1 2.1
4.5 4.8 5.2 5.5 5.5 5.5 5.7 5.9 6.4 6.8 6.8 7.3 7.6 7.9 8.2 7.3 7.8 7.7 6.9 6.3 7.1 8.3 8.5 8.8 9.0 8.7 8.5 7.1 5.8 5.2 5.9 6.0 5.6 5.1 4.5 4.6 4.1 4.6 4.9 5.0 5.0 5.5 4.3
4.2 4.3 4.0 4.8 5.3 5.7 6.0 6.4 6.6 6.8 6.7 6.7 6.9 7.7 5.8 7.4 7.6 7.5 7.7 8.4 8.7 9.0 9.2 9.2 9.4 9.4 8.5 8.0 8.0 6.7 6.0 7.0 6.7 6.3 6.1 5.1 5.1 5.1 4.9 5.6 5.8 6.7 5.4
3.7 3.7 4.4 4.7 4.9 5.2 5.8 5.8 6.1 6.5 6.7 6.5 6.2 6.2 4.9 6.4 7.5 7.5 7.4 6.9 7.9 8.3 9.1 9.2 9.3 9.2 9.0 8.7 8.5 8.4 7.4 7.6 7.5 6.7 6.7 5.9 4.9 5.8 6.8 6.3 6.7 6.7 5.4
3.9 4.4 4.4 4.5 4.7 4.9 5.3 5.5 6.1 6.4 6.7 6.6 6.5 6.2 5.9 5.8 6.1 7.2 7.5 8.1 8.0 7.7 7.9 8.2 8.9 9.1 8.4 7.4 7.2 8.0 7.2 8.5 7.9 7.7 7.7 7.4 7.1 6.3 7.2 7.8 7.0 7.1 5.9
4.8 4.8 4.9 4.6 4.5 4.7 5.0 5.4 5.7 6.0 6.5 6.7 6.7 6.7 6.5 6.3 5.9 5.8 7.1 7.7 7.9 7.7 7.6 8.0 8.0 8.6 8.3 8.2 7.9 7.5 7.4 7.0 7.2 7.7 6.9 7.9 8.0 5.9 7.6 8.0 7.6 7.8 7.2
6.1 5.5 5.4 5.3 4.9 4.9 5.2 5.7 6.3 6.8 6.8 6.8 6.8 6.7 6.7 6.4 6.1 5.9 6.0 6.8 7.3 7.2 7.7 7.5 7.8 7.6 8.0 8.0 8.4 8.3 7.8 2.7 5.3 2.7 6.8 7.5 6.7 6.1 7.5 7.4 6.8 7.3 6.7
5.5 5.4 5.3 5.3 4.8 5.0 5.5 6.1 6.7 6.9 6.9 6.9 6.9 6.8 6.6 6.5 6.1 5.9 5.7 5.7 6.2 6.1 6.4 7.3 7.7 7.9 7.9 8.2 8.3 6.7 4.3 2.4 3.7 3.5 5.7 6.8 6.5 6.1 5.8 6.1 7.3 6.2 5.5
Wind_Speed
7 7 8 9 10 9 9 10 10 12 8 12 10 9 12 20 24 12 13 12 15 11 11 11 9 7 3 5 4 3 3 3 7 4 4 7 5 8 11 14 12 9 8
6 5 6 6 9 7 8 9 12 14 12 9 10 9 7 8 12 13 22 14 15 13 11 8 12 8 6 6 5 6 5 5 5 11 9 4 4 6 8 7 8 7 7
7 7 6 6 6 7 9 10 9 11 12 12 9 8 9 9 6 6 22 12 9 13 13 14 13 12 8 3 4 4 3 3 4 7 5 4 3 5 3 4 4 7 5
9 8 7 6 7 7 8 8 10 11 13 12 10 11 10 8 7 5 2 12 20 20 18 16 11 13 11 9 8 8 6 8 3 5 6 4 3 5 4 3 3 3 4
9 8 7 7 7 9 9 8 9 9 12 13 12 9 9 9 4 4 1 4 7 20 18 9 5 11 19 14 8 7 8 4 3 5 3 4 5 6 7 5 4 4 3
10 10 10 10 9 7 7 8 9 10 9 10 13 13 8 7 8 6 2 3 6 5 11 13 7 12 15 11 10 15 10 5 2 1 4 2 9 6 8 8 6 3 2
11 11 12 12 11 9 8 8 8 7 8 11 12 13 16 9 4 2 3 3 3 5 6 12 11 5 7 11 12 8 11 12 10 6 3 4 4 9 10 9 7 4 3
13 13 13 13 11 12 14 12 9 6 6 6 9 12 15 14 11 6 6 6 4 5 5 8 8 10 11 14 16 15 15 12 12 8 7 5 3 6 10 7 9 7 6
14 14 15 14 14 12 14 13 10 12 11 8 8 10 13 15 19 11 6 5 7 8 7 6 12 13 15 16 14 16 17 13 11 9 13 12 11 12 13 9 6 6 3
14 15 15 16 15 14 13 13 12 12 12 11 12 10 11 14 15 12 10 6 7 6 7 6 10 11 17 23 18 17 17 18 11 5 4 5 8 8 13 9 9 7 4
15 16 15 14 14 15 13 12 13 13 13 13 12 11 12 13 16 15 12 10 8 6 7 6 7 13 15 20 22 16 18 14 12 11 7 5 5 5 4 5 6 4 4
13 15 14 13 11 11 14 13 14 14 15 14 14 12 10 12 15 17 15 16 12 8 8 6 5 10 12 16 17 21 12 12 9 11 11 10 11 8 7 6 8 3 9
13 14 13 15 13 13 13 13 10 12 11 12 11 12 10 10 10 14 18 17 18 6 6 6 6 8 7 8 14 13 13 11 11 11 11 11 11 10 10 7 11 17 15
13 13 12 12 13 13 11 10 10 10 10 10 10 10 10 9 11 3 7 9 9 7 6 3 5 6 6 6 4 9 11 10 12 12 10 9 9 9 8 10 8 7 8
12 13 13 11 11 11 11 10 10 11 10 10 9 9 9 10 7 5 5 6 9 9 5 3 2 4 6 4 4 7 10 11 9 10 8 9 9 9 10 11 9 8 5
13 11 11 11 11 10 11 11 14 17 18 16 17 15 12 16 19 15 5 10 11 14 4 3 3 2 2 4 5 3 6 9 8 8 5 7 9 10 12 12 11 9 9
13 13 10 12 10 10 10 10 11 10 16 17 19 21 21 21 17 11 13 10 8 3 4 5 5 5 4 4 5 6 5 3 7 7 6 6 7 11 14 14 12 11 9
13 19 10 10 10 9 9 10 9 10 10 9 10 14 15 19 19 14 13 6 6 5 6 8 5 6 6 4 5 4 4 6 4 4 5 3 6 3 4 13 13 12 11
11 9 10 9 9 11 9 9 9 10 10 10 9 10 10 15 13 12 13 7 8 8 9 9 8 7 7 6 4 5 7 6 6 7 7 6 3 3 6 4 11 14 14
10 16 14 9 9 9 8 8 8 9 9 9 9 9 8 7 7 8 9 9 9 10 9 11 10 9 7 8 8 8 7 8 6 6 6 7 6 4 5 7 6 12 13
9 9 13 9 9 9 8 9 8 8 8 8 9 9 9 7 8 7 8 9 10 10 11 11 10 11 8 11 9 10 10 9 10 10 9 8 8 7 7 7 8 10 14
9 9 9 9 9 9 9 9 9 8 9 9 8 8 8 6 9 9 9 8 8 9 8 10 10 10 9 8 7 10 9 12 14 12 11 10 9 9 10 10 11 5 13
9 10 10 9 9 11 10 9 9 9 8 9 8 8 7 7 8 9 10 10 9 8 7 8 9 10 9 9 9 7 7 9 10 11 10 12 13 10 13 11 11 8 7
9 10 10 10 9 10 9 10 10 11 10 8 8 7 7 7 9 10 10 9 9 9 8 9 8 9 9 10 11 7 8 8 7 7 9 10 10 9 8 8 6 10 6
10 10 10 10 10 10 11 11 11 11 10 9 8 7 7 7 8 8 8 8 8 6 7 9 9 10 12 13 12 15 12 13 5 6 2 1 3 4 6 6 4 6 5
11 12 11 10 10 10 10 11 11 11 10 9 9 8 7 7 7 7 7 8 8 8 10 8 9 14 16 14 16 15 13 12 6 8 1 2 2 3 3 5 8 3 6
Wind_Direction
33 6 355 1 353 357 347 339 336 332 350 338 349 328 228 226 234 234 212 213 206 199 200 183 185 194 191 147 147 159 159 143 113 109 109 126 106 115 114 122 131 138 144
24 2 351 6 346 340 329 338 335 332 335 347 356 338 331 226 216 237 243 215 201 207 195 197 187 194 197 172 162 176 167 171 125 144 140 140 100 127 136 128 134 148 168
353 348 345 346 340 329 322 321 318 319 327 332 342 345 345 337 345 260 238 297 262 204 207 201 191 180 184 170 97 107 83 104 116 137 137 130 111 137 133 130 156 146 175
341 325 325 332 323 305 304 308 317 319 317 321 329 334 331 345 13 354 335 242 273 291 206 209 200 182 164 123 107 96 71 36 344 128 143 155 135 156 154 154 154 158 163
317 314 310 307 300 310 310 303 304 305 307 310 315 322 330 335 53 63 336 311 250 282 287 229 178 150 139 143 140 142 103 97 60 301 168 157 136 156 183 169 166 155 162
321 308 301 293 283 282 291 300 303 299 296 302 309 311 315 316 125 181 214 229 233 260 198 212 225 164 139 141 116 115 114 122 115 234 293 216 169 165 177 162 142 143 199
310 304 301 298 296 284 272 274 277 294 316 317 311 306 305 293 114 147 285 230 244 275 248 220 176 196 169 138 107 127 189 195 166 163 259 282 166 177 167 161 152 154 179
321 315 305 300 328 351 345 325 295 262 267 289 304 309 313 309 306 205 184 286 284 267 275 173 184 169 180 183 178 190 210 214 205 174 183 249 173 150 156 156 154 116 92
314 319 322 329 329 330 326 324 321 333 313 279 279 290 298 301 313 275 208 224 266 272 265 242 188 191 197 203 194 197 209 217 219 197 169 148 147 143 135 116 128 144 132
327 331 332 330 328 325 319 308 307 302 295 300 293 279 279 296 303 295 254 244 250 262 271 254 233 224 192 197 201 203 206 213 208 153 136 100 145 139 147 154 160 171 153
325 324 319 318 318 314 307 307 314 311 303 286 283 292 292 287 288 291 251 271 266 261 261 257 245 229 218 197 206 208 213 222 203 196 179 163 158 159 166 179 170 172 176
314 306 305 306 306 304 299 298 299 296 293 287 290 278 270 271 272 277 248 224 260 258 260 270 265 279 234 224 201 220 216 190 203 197 194 199 189 176 176 176 185 129 58
304 300 299 297 295 293 291 292 290 287 280 284 278 277 285 292 289 315 283 229 226 235 240 254 303 260 244 218 213 209 184 206 199 197 197 193 193 182 174 150 111 100 87
307 306 303 300 297 293 285 280 279 278 273 267 273 280 270 271 273 31 355 347 263 244 232 214 217 209 215 236 193 216 217 212 204 202 194 189 189 182 172 149 144 133 112
310 307 303 298 297 298 289 282 277 275 269 273 272 282 277 264 272 35 46 5 349 277 177 182 170 188 191 190 201 204 216 205 206 192 188 199 200 188 169 159 152 161 140
311 309 305 302 297 295 292 289 271 259 263 254 256 254 267 263 278 293 315 332 349 337 198 186 217 192 258 209 211 197 196 196 187 178 158 201 207 205 174 164 157 168 151
307 305 304 300 296 294 292 290 292 284 265 252 250 249 244 251 260 259 279 288 299 352 297 249 203 206 218 240 280 194 208 192 173 199 175 197 222 214 164 163 162 159 151
305 305 301 298 297 295 292 289 286 286 286 282 263 244 248 242 248 231 220 213 266 232 245 266 247 201 204 212 227 241 256 168 173 145 183 225 247 148 215 171 167 164 154
315 307 304 299 294 291 287 281 279 281 278 279 279 274 251 242 237 221 197 222 225 231 232 249 253 226 202 207 225 232 223 216 172 169 168 172 234 190 218 257 173 166 151
313 308 307 304 298 293 288 283 280 280 281 276 274 273 268 261 249 240 217 217 226 231 223 226 238 240 231 200 212 224 249 217 199 171 171 177 180 225 228 221 258 171 165
311 310 308 304 307 302 294 290 286 282 276 276 273 270 267 267 264 253 247 243 231 229 224 226 227 233 235 218 212 201 219 234 206 195 185 186 184 185 219 243 237 207 168
313 307 307 306 304 303 302 300 292 287 283 278 275 271 276 271 252 248 247 261 244 237 238 226 227 231 235 242 233 216 209 225 203 200 196 189 172 211 218 224 234 224 159
311 316 316 315 312 310 307 301 297 293 288 287 279 272 260 252 254 249 239 240 240 241 236 233 227 222 228 239 254 266 286 253 202 189 193 184 189 197 216 205 212 235 161
310 316 316 315 315 314 312 309 304 299 291 285 282 274 265 261 249 246 247 236 233 228 230 229 229 219 215 221 236 249 266 275 291 191 157 206 200 199 194 195 217 205 211
326 322 323 321 318 317 314 312 308 307 305 302 293 284 276 263 273 239 238 240 238 249 232 216 214 219 220 221 228 235 245 273 283 355 35 107 38 341 208 190 165 206 182
332 330 328 325 322 317 313 311 309 309 307 303 300 292 285 279 261 269 231 231 227 221 227 237 227 214 214 221 223 229 230 237 217 241 264 29 356 329 325 308 197 191 150